Weather History for Andalusia, AL

Change the Weather History Date:

Tuesday, March 18, 2014

  Actual Average (KCEW) Record (KCEW)
Temperature  
Mean Temperature 54 °F -  
Max Temperature 61 °F 71 °F 87 °F (1982)
Min Temperature 48 °F 48 °F 30 °F (2007)
Degree Days  
Heating Degree Days 10    
Growing Degree Days 4 (Base 50)    
Moisture  
Dew Point 46 °F    
Average Humidity 76    
Maximum Humidity 87    
Minimum Humidity 59    
Precipitation  
Precipitation 0.02 in - - ()
Sea Level Pressure  
Sea Level Pressure 29.93 in    
Wind  
Wind Speed 5 mph (NNE)    
Max Wind Speed 9 mph    
Max Gust Speed -    
Visibility 8 miles    
Events      
Averages and records for this station are not official NWS values.
T = Trace of Precipitation, MM = Missing Value Source: NWS Daily Summary

Daily Weather History Graph

Daily Weather History Graph

Search for Another Location

Airport:

Trip Planner

Search our weather history database for the weather conditions in past years. The results will help you decide how hot, cold, wet, or windy it might be!

Date:

Astronomy

Mar. 18, 2014 Rise Set
Actual Time 6:51 AM CDT 6:55 PM CDT
Civil Twilight 6:27 AM CDT 7:19 PM CDT
Nautical Twilight 5:59 AM CDT 7:48 PM CDT
Astronomical Twilight 5:31 AM CDT 8:16 PM CDT
Moon 9:02 PM CDT (3/18) 7:49 AM CDT (3/18)
Length of Visible Light 12h 52m
Length of Day
12h 03m
Waning Gibbous, 96% of the Moon is Illuminated
Mar 18
Waning Gibbous
Mar 23
Last Quarter
Mar 30
New
Apr 7
First Quarter
Apr 15
Full

Hourly Weather History & Observations

Time (CDT) Temp. Dew Point Humidity Pressure Visibility Wind Dir Wind Speed Gust Speed Precip Events Conditions
12:56 AM 48.9 °F 44.1 °F 83% 29.81 in 10.0 mi North 8.1 mph - 0.01 in   Overcast
1:56 AM 48.9 °F 44.1 °F 83% 29.80 in 10.0 mi North 5.8 mph - N/A   Overcast
2:56 AM 48.9 °F 44.1 °F 83% 29.78 in 10.0 mi NNW 9.2 mph - N/A   Overcast
3:15 AM 48.2 °F 44.6 °F 87% 29.79 in 10.0 mi NNW 9.2 mph - N/A   Overcast
3:56 AM 48.0 °F 43.0 °F 83% 29.78 in 9.0 mi NNW 5.8 mph - N/A   Overcast
4:56 AM 48.0 °F 43.0 °F 83% 29.79 in 7.0 mi North 8.1 mph - N/A   Overcast
5:17 AM 48.2 °F 44.6 °F 87% 29.81 in 5.0 mi North 6.9 mph - N/A   Overcast
5:56 AM 48.0 °F 43.0 °F 83% 29.86 in 6.0 mi NNE 8.1 mph - N/A   Haze
6:16 AM 48.2 °F 42.8 °F 82% 29.88 in 7.0 mi NNW 5.8 mph - N/A   Overcast
6:56 AM 48.0 °F 43.0 °F 83% 29.90 in 4.0 mi NNW 3.5 mph - N/A   Haze
7:25 AM 48.2 °F 44.6 °F 87% 29.91 in 2.5 mi NNW 4.6 mph - 0.01 in   Overcast
7:40 AM 48.2 °F 44.6 °F 87% 29.92 in 3.0 mi North 3.5 mph - 0.01 in   Overcast
7:56 AM 48.0 °F 44.1 °F 86% 29.93 in 5.0 mi NNW 4.6 mph - 0.01 in   Overcast
8:56 AM 50.0 °F 45.0 °F 83% 29.96 in 6.0 mi Calm Calm - N/A   Haze
9:56 AM 53.1 °F 45.0 °F 74% 29.97 in 10.0 mi ENE 3.5 mph - N/A   Unknown
10:07 AM 53.6 °F 44.6 °F 72% 29.98 in 10.0 mi Calm Calm - N/A   Overcast
10:29 AM 55.4 °F 46.4 °F 72% 29.97 in 10.0 mi NNE 4.6 mph - N/A   Overcast
10:53 AM 53.6 °F 44.6 °F 72% 29.97 in - North - - N/A   Unknown
10:56 AM 54.0 °F 45.0 °F 72% 29.97 in - North - - N/A   Unknown
11:49 AM 55.4 °F 44.6 °F 67% 29.97 in 10.0 mi ENE 4.6 mph - N/A   Overcast
11:56 AM 55.9 °F 45.0 °F 67% 29.96 in 10.0 mi Variable 3.5 mph - N/A   Overcast
12:24 PM 57.2 °F 44.6 °F 63% 29.96 in 10.0 mi ESE 3.5 mph - N/A   Overcast
12:56 PM 59.0 °F 46.0 °F 62% 29.96 in 10.0 mi ESE 4.6 mph - N/A   Overcast
1:56 PM 60.1 °F 46.9 °F 62% 29.94 in 10.0 mi East 5.8 mph - N/A   Overcast
2:56 PM 57.9 °F 46.9 °F 67% 29.95 in 10.0 mi SE 6.9 mph - N/A   Overcast
3:56 PM 57.9 °F 46.9 °F 67% 29.95 in 10.0 mi SSE 3.5 mph - N/A   Overcast
4:56 PM 59.0 °F 48.0 °F 67% 29.95 in 10.0 mi Calm Calm - N/A   Overcast
5:56 PM 61.0 °F 48.0 °F 62% 29.96 in 10.0 mi SSE 5.8 mph - N/A   Overcast
6:15 PM 60.8 °F 46.4 °F 59% 29.96 in 10.0 mi SSE 4.6 mph - N/A   Scattered Clouds
6:56 PM 57.0 °F 48.0 °F 72% 29.97 in 10.0 mi Calm Calm - N/A   Clear
7:56 PM 53.1 °F 48.0 °F 83% 29.98 in 10.0 mi Calm Calm - N/A   Clear
8:56 PM 50.0 °F 46.0 °F 86% 29.99 in 7.0 mi Calm Calm - N/A   Clear
9:56 PM 52.0 °F 46.9 °F 83% 30.02 in 9.0 mi SSW 3.5 mph - N/A   Clear
10:14 PM 53.6 °F 48.2 °F 82% 30.03 in 10.0 mi South 3.5 mph - N/A   Mostly Cloudy
10:56 PM 55.0 °F 48.9 °F 80% 30.05 in 10.0 mi Calm Calm - N/A   Overcast
11:56 PM 54.0 °F 48.9 °F 83% 30.05 in 10.0 mi Calm Calm - N/A   Overcast